When you browse on this site, cookies collect data to enhance your experience and personalize the content and advertising you see.
Visit our Privacy Policy to learn more. By continuing to use the site, you agree to this use of cookies and data.
EN

Hourly Weather Novyy Sad

Today, 22 September, Tuesday

Time Temperature Precipitation Wind Pressure Humidity
00:00 +14°C° 0 mm 3 mps 761 mmHg 42%
01:00 +13°C° 0 mm 3 mps 761 mmHg 45%
02:00 +13°C° 0 mm 3 mps 761 mmHg 48%
03:00 +13°C° 0 mm 2 mps 761 mmHg 48%
04:00 +12°C° 0 mm 2 mps 761 mmHg 50%
05:00 +12°C° 0 mm 2 mps 761 mmHg 53%
06:00 +12°C° 0 mm 2 mps 761 mmHg 56%
07:00 +14°C° 0 mm 2 mps 761 mmHg 52%
08:00 +16°C° 0 mm 2 mps 762 mmHg 49%
09:00 +18°C° 0 mm 3 mps 762 mmHg 45%
10:00 +21°C° 0 mm 3 mps 762 mmHg 41%
11:00 +24°C° 0 mm 3 mps 762 mmHg 37%
12:00 +26°C° 0 mm 4 mps 761 mmHg 32%
13:00 +27°C° 0 mm 3 mps 761 mmHg 30%
14:00 +28°C° 0 mm 3 mps 761 mmHg 28%
15:00 +29°C° 0 mm 3 mps 761 mmHg 26%
16:00 +28°C° 0 mm 3 mps 761 mmHg 30%
17:00 +26°C° 0 mm 3 mps 761 mmHg 34%
18:00 +25°C° 0 mm 3 mps 760 mmHg 38%
19:00 +22°C° 0 mm 3 mps 761 mmHg 43%
20:00 +21°C° 0 mm 3 mps 761 mmHg 47%
21:00 +19°C° 0 mm 3 mps 761 mmHg 52%
22:00 +19°C° 0 mm 3 mps 761 mmHg 58%
23:00 +18°C° 0 mm 2 mps 760 mmHg 63%

Tomorrow, 23 September, Wednesday

Time Temperature Precipitation Wind Pressure Humidity
00:00 +17°C° 0 mm 2 mps 760 mmHg 69%
01:00 +16°C° 0 mm 2 mps 760 mmHg 73%
02:00 +16°C° 0 mm 2 mps 760 mmHg 76%
03:00 +15°C° 0 mm 1 mps 760 mmHg 80%
04:00 +15°C° 0 mm 1 mps 760 mmHg 82%
05:00 +14°C° 0 mm 1 mps 760 mmHg 84%
06:00 +14°C° 0 mm 1 mps 760 mmHg 87%
07:00 +16°C° 0 mm 2 mps 760 mmHg 79%
08:00 +18°C° 0 mm 2 mps 760 mmHg 72%
09:00 +20°C° 0 mm 3 mps 760 mmHg 65%
10:00 +24°C° 0 mm 3 mps 760 mmHg 57%
11:00 +26°C° 0 mm 3 mps 759 mmHg 50%
12:00 +28°C° 0 mm 3 mps 759 mmHg 42%
13:00 +29°C° 0 mm 2 mps 759 mmHg 40%
14:00 +30°C° 0 mm 2 mps 758 mmHg 38%
15:00 +31°C° 0 mm 2 mps 758 mmHg 36%
16:00 +29°C° 0 mm 2 mps 758 mmHg 40%
17:00 +28°C° 0 mm 2 mps 757 mmHg 44%
18:00 +26°C° 0 mm 2 mps 757 mmHg 48%
19:00 +25°C° 0 mm 2 mps 757 mmHg 52%
20:00 +23°C° 0 mm 2 mps 757 mmHg 57%
21:00 +21°C° 0 mm 2 mps 757 mmHg 62%
22:00 +20°C° 0 mm 2 mps 757 mmHg 66%
23:00 +19°C° 0 mm 2 mps 757 mmHg 70%

Day after tomorrow, 24 September, Thursday

Time Temperature Precipitation Wind Pressure Humidity
00:00 +18°C° 0 mm 2 mps 757 mmHg 75%
01:00 +19°C° 0 mm 1 mps 757 mmHg 78%
02:00 +18°C° 0 mm 1 mps 757 mmHg 80%
03:00 +18°C° 0 mm 1 mps 758 mmHg 83%
04:00 +16°C° 0 mm 1 mps 758 mmHg 85%
05:00 +16°C° 0 mm 1 mps 758 mmHg 86%
06:00 +16°C° 0 mm 1 mps 758 mmHg 87%
07:00 +19°C° 0 mm 1 mps 758 mmHg 79%
08:00 +21°C° 0 mm 1 mps 758 mmHg 70%
09:00 +23°C° 0 mm 1 mps 758 mmHg 62%
10:00 +25°C° 0 mm 1 mps 757 mmHg 56%
11:00 +27°C° 0 mm 1 mps 757 mmHg 49%
12:00 +29°C° 0 mm 1 mps 757 mmHg 43%
13:00 +30°C° 0 mm 1 mps 757 mmHg 41%
14:00 +30°C° 0 mm 2 mps 757 mmHg 39%
15:00 +31°C° 0 mm 2 mps 757 mmHg 37%
16:00 +29°C° 0 mm 2 mps 756 mmHg 40%
17:00 +28°C° 0 mm 1 mps 756 mmHg 43%
18:00 +27°C° 0 mm 1 mps 756 mmHg 46%
19:00 +25°C° 0 mm 1 mps 756 mmHg 49%
20:00 +24°C° 0 mm 1 mps 756 mmHg 53%
21:00 +23°C° 0 mm 1 mps 756 mmHg 56%
22:00 +22°C° 0 mm 1 mps 756 mmHg 59%
23:00 +21°C° 0 mm 1 mps 756 mmHg 61%

25 September, Friday

Time Temperature Precipitation Wind Pressure Humidity
00:00 +20°C° 0 mm 1 mps 756 mmHg 64%
01:00 +20°C° 0 mm 1 mps 756 mmHg 66%
02:00 +20°C° 0 mm 1 mps 756 mmHg 68%
03:00 +19°C° 0 mm 1 mps 756 mmHg 70%
04:00 +19°C° 0 mm 1 mps 756 mmHg 72%
05:00 +19°C° 0 mm 1 mps 756 mmHg 73%
06:00 +16°C° 0 mm 0 mps 756 mmHg 75%
07:00 +20°C° 0 mm 1 mps 756 mmHg 67%
08:00 +23°C° 0 mm 1 mps 756 mmHg 60%
09:00 +25°C° 0 mm 1 mps 756 mmHg 53%
10:00 +27°C° 0 mm 1 mps 756 mmHg 47%
11:00 +29°C° 0 mm 1 mps 756 mmHg 42%
12:00 +31°C° 0 mm 1 mps 756 mmHg 36%
13:00 +31°C° 0.1 mm 1 mps 755 mmHg 35%
14:00 +31°C° 0.1 mm 1 mps 755 mmHg 34%
15:00 +32°C° 0.1 mm 1 mps 755 mmHg 32%
16:00 +30°C° 0.1 mm 1 mps 755 mmHg 36%
17:00 +29°C° 0.1 mm 1 mps 754 mmHg 40%
18:00 +27°C° 0.1 mm 1 mps 754 mmHg 44%
19:00 +26°C° 0 mm 1 mps 754 mmHg 48%
20:00 +25°C° 0 mm 1 mps 754 mmHg 52%
21:00 +24°C° 0 mm 1 mps 754 mmHg 56%
22:00 +23°C° 0 mm 1 mps 754 mmHg 58%
23:00 +23°C° 0 mm 1 mps 754 mmHg 61%

26 September, Saturday

Time Temperature Precipitation Wind Pressure Humidity
00:00 +23°C° 0 mm 1 mps 754 mmHg 63%
01:00 +22°C° 0 mm 1 mps 754 mmHg 64%
02:00 +22°C° 0 mm 1 mps 754 mmHg 64%
03:00 +22°C° 0 mm 1 mps 754 mmHg 65%
04:00 +21°C° 0 mm 1 mps 754 mmHg 67%
05:00 +21°C° 0 mm 1 mps 754 mmHg 69%
06:00 +20°C° 0 mm 1 mps 754 mmHg 71%
07:00 +22°C° 0 mm 1 mps 754 mmHg 66%
08:00 +24°C° 0 mm 1 mps 754 mmHg 60%
09:00 +25°C° 0 mm 1 mps 754 mmHg 54%
10:00 +27°C° 0 mm 1 mps 754 mmHg 49%
11:00 +29°C° 0 mm 1 mps 754 mmHg 44%
12:00 +31°C° 0 mm 1 mps 754 mmHg 39%
13:00 +31°C° 0 mm 2 mps 754 mmHg 37%
14:00 +32°C° 0 mm 2 mps 754 mmHg 35%
15:00 +32°C° 0 mm 2 mps 754 mmHg 33%
16:00 +31°C° 0.1 mm 2 mps 754 mmHg 37%
17:00 +29°C° 0.1 mm 2 mps 754 mmHg 40%
18:00 +27°C° 0.1 mm 3 mps 754 mmHg 44%
19:00 +26°C° 0 mm 3 mps 754 mmHg 47%
20:00 +25°C° 0 mm 3 mps 754 mmHg 51%
21:00 +22°C° 0 mm 4 mps 754 mmHg 54%
22:00 +21°C° 0 mm 3 mps 754 mmHg 57%
23:00 +21°C° 0 mm 3 mps 754 mmHg 61%

27 September, Sunday

Time Temperature Precipitation Wind Pressure Humidity
00:00 +20°C° 0 mm 3 mps 755 mmHg 64%
01:00 +19°C° 0 mm 3 mps 755 mmHg 67%
02:00 +18°C° 0 mm 3 mps 755 mmHg 69%
03:00 +18°C° 0 mm 3 mps 755 mmHg 71%
04:00 +17°C° 0 mm 2 mps 755 mmHg 73%
05:00 +17°C° 0 mm 2 mps 755 mmHg 75%
06:00 +17°C° 0 mm 2 mps 755 mmHg 77%
07:00 +19°C° 0 mm 2 mps 755 mmHg 70%
08:00 +21°C° 0 mm 2 mps 755 mmHg 62%
09:00 +24°C° 0 mm 2 mps 755 mmHg 55%
10:00 +27°C° 0 mm 2 mps 755 mmHg 48%
11:00 +29°C° 0 mm 3 mps 755 mmHg 41%
12:00 +33°C° 0 mm 3 mps 755 mmHg 34%
13:00 +33°C° 0 mm 3 mps 755 mmHg 32%
14:00 +34°C° 0 mm 2 mps 755 mmHg 30%
15:00 +35°C° 0 mm 2 mps 755 mmHg 28%
16:00 +32°C° 0 mm 2 mps 755 mmHg 32%
17:00 +30°C° 0 mm 2 mps 755 mmHg 36%
18:00 +28°C° 0 mm 1 mps 755 mmHg 39%
19:00 +27°C° 0 mm 2 mps 756 mmHg 44%
20:00 +26°C° 0 mm 2 mps 756 mmHg 49%
21:00 +24°C° 0 mm 3 mps 757 mmHg 53%
22:00 +24°C° 0 mm 3 mps 757 mmHg 58%
23:00 +22°C° 0 mm 3 mps 757 mmHg 62%
Show more